Find Starlink 31647

NORAD ID: 59389 Int'l Des: 2024-062 Owner: SPXS Country: US Constellation: starlink operational
LEOCIRCULAR

Live Position

Loading 3D Globe...

About Starlink 31647

Description loading...

Upcoming Passes

Passes for default location (London). Set your location on the main map for personalized predictions.

Altitude History

Loading altitude history...

Two-Line Element Set

1 59389U 24062R 26126.01133175 -.00003884 00000-0 -11908-3 0 9993
2 59389 53.1613 349.7282 0001209 72.6915 287.4218 15.30202056118446
Epoch: May 6, 2026 • Age: 10 hours

Current Status

Altitude 490.8 km
Velocity 7.62 km/s
Sub-Earth Point -43.79°S, 171.81°W
Launch Date Apr 2, 2024
Age 2 years
Type internet

Technical Details

Classification Payload
Mass 730.00 kg
Dry Mass 700.00 kg
Total Mass 730.00 kg
Length 0.30 m
Diameter 4.10 m
Span 29.00 m
Shape Box + pan
Manufacturer SPXS
Bus Type Starlink V2M
Phase Status In Orbit
Owner/State SPXS/US

Most Searched